User: anonymous   Login
Location: Franzen
(48.6167°N, 15.3833°E)
Time: 16:06:06
(UTC+00:00)
Language:

Resurs 01 Rocket - Orbit

View from above orbital plane
View from above orbital plane
View from above satellite
View from above satellite

Ground track
Ground track

The orbit data is extracted from the following two-line orbital elements,

1 23343U 94074B   21166.88932392  .00000019  00000-0  99959-5 0  9995
2 23343  97.9459 221.5477 0008154  65.1645 108.1854 14.76884482432269
Epoch (UTC): 15 June 2021 21:20:37
Eccentricity: 0.0008154
inclination: 97.9459°
perigee height: 633 km
apogee height: 645 km
right ascension of ascending node: 221.5477°
argument of perigee: 65.1645°
revolutions per day: 14.76884482
mean anomaly at epoch: 108.1854°
orbit number at epoch: 43226

The dashed part of the orbit path shows where the satellite is in the earth's shadow,  

DLR